This demonstration page uses our WeatherBlox Daily Observations layout. Learn more.

Left ArrowRight Arrow

Hourly Observations for September 16, 2015

Temp ( °F °C ) Dew Point ( °F °C ) Humidity (%) Winds ( mph kmh ) Pressure ( in mb ) Visibility ( mi km ) Precip ( " mm )
12:53 am 00:53 Clear 55 12.8 53 11.7 93 93 Calm 30.31 1026 10 16.0934 0 0
1:53 am 01:53 Clear 53 11.7 52 11.1 96 96 Calm 30.31 1026 10 16.0934 0 0
2:53 am 02:53 Clear 53 11.7 51 10.6 93 93 Calm 30.31 1026 9 14.48406 0 0
3:53 am 03:53 Clear 52 11.1 50 10 93 93 Calm 30.32 1027 10 16.0934 0 0
4:53 am 04:53 Clear with Mist and Fog 51 10.6 50 10 96 96 Calm 30.32 1027 6 9.65604 0 0
5:53 am 05:53 Mostly Clear 50 10 48 8.9 93 93 Calm 30.33 1027 10 16.0934 0 0
6:47 am 06:47 Clear with Mist and Fog 48 9 48 9 100 100 Calm 30.33 1027 1.5 2.41401 0 0
6:53 am 06:53 Clear with Fog 49 9.4 48 8.9 97 97 Calm 30.34 1027 0.5 0.80467 0 0
7:07 am 07:07 Clear with Mist and Fog 49 9.4 48 8.9 97 97 Calm 30.33 1027 1.75 2.816345 0 0
7:09 am 07:09 Clear with Mist and Fog 49 9.4 48 8.9 97 97 Calm 30.33 1027 3 4.82802 0 0
7:22 am 07:22 Sunny with Mist and Fog 50 10 49 9.4 96 96 Calm 30.33 1027 1.5 2.41401 0 0
7:34 am 07:34 Sunny with Mist and Fog 50 10 49 9.4 96 96 Calm 30.33 1027 4 6.43736 0 0
7:53 am 07:53 Sunny 51 10.6 50 10 96 96 Calm 30.34 1028 9 14.48406 0 0
8:53 am 08:53 Sunny 60 15.6 56 13.3 86 86 Calm 30.35 1028 10 16.0934 0 0
9:53 am 09:53 Sunny 67 19.4 57 13.9 71 71 Calm 30.35 1028 10 16.0934 0 0
10:53 am 10:53 Sunny 73 22.8 58 14.4 59 59 Calm 30.35 1028 10 16.0934 0 0
11:53 am 11:53 Sunny 78 25.6 57 13.9 48 48 Calm 30.33 1027 10 16.0934 0 0
12:53 pm 12:53 Partly Cloudy 81 27.2 59 15 47 47 Calm 30.32 1027 10 16.0934 0 0
1:53 pm 13:53 Sunny 81 27.2 55 12.8 41 41 VRB 3 6 30.29 1026 10 16.0934 0 0
2:53 pm 14:53 Sunny 82 27.8 55 12.8 40 40 Calm 30.27 1025 10 16.0934 0 0
3:53 pm 15:53 Mostly Sunny 82 27.8 56 13.3 41 41 S 7 11 30.24 1024 10 16.0934 0 0
4:53 pm 16:53 Sunny 83 28.3 56 13.3 40 40 VRB 3 6 30.23 1024 10 16.0934 0 0
5:53 pm 17:53 Sunny 81 27.2 55 12.8 41 41 VRB 6 9 30.22 1023 10 16.0934 0 0
6:53 pm 18:53 Sunny 78 25.6 58 14.4 50 50 W 3 6 30.21 1023 10 16.0934 0 0
7:53 pm 19:53 Clear 67 19.4 60 15.6 79 79 Calm 30.21 1023 10 16.0934 0 0
8:53 pm 20:53 Clear 62 16.7 58 14.4 86 86 Calm 30.21 1023 10 16.0934 0 0.0254
9:53 pm 21:53 Clear 60 15.6 58 14.4 93 93 Calm 30.21 1023 10 16.0934 0 0
10:53 pm 22:53 Clear 59 15 57 13.9 93 93 Calm 30.21 1023 10 16.0934 0 0
11:53 pm 23:53 Clear 57 13.9 56 13.3 96 96 Calm 30.21 1023 10 16.0934 0 0

Powered by AerisWeather